FW2089 Weather Reports


time (UTC)temp
C
wind
direction
speed
KPH
gust
KPH
rain 1hr
cm
rain 24hr
cm
rain mn
cm
humidity
%
barometer
mb
20260507170218 17 0.0 0.0 0.00 0.84 0.53 43 1007.7
20260507165710 17 0.0 0.0 0.00 0.84 0.53 47 1007.8
20260507165200 17 0.0 0.0 0.00 0.84 0.53 43 1007.7
20260507164648 17 0.0 0.0 0.00 0.84 0.53 43 1007.8
20260507164409 16 0.0 0.0 0.00 0.84 0.53 44 1007.9
20260507163634 16 0.0 0.0 0.00 0.84 0.53 44 1007.9
20260507163124 16 0.0 0.0 0.00 0.84 0.53 43 1008.0
20260507162831 16 0.0 0.0 0.00 0.84 0.53 44 1008.0
20260507162106 16 0.0 0.0 0.00 0.84 0.53 47 1008.0
20260507161815 16 0.0 0.0 0.00 0.84 0.53 50 1008.1
20260507161055 16 0.0 0.0 0.00 0.84 0.53 51 1008.0
20260507160818 16 0.0 0.0 0.00 0.84 0.53 49 1008.1
20260507160041 16 0.0 0.0 0.00 0.84 0.53 55 1008.1
20260507155533 16 0.0 0.0 0.00 0.84 0.53 55 1008.2
20260507155031 16 0.0 0.0 0.00 0.84 0.53 56 1008.3
20260507154522 15 0.0 0.0 0.00 0.84 0.53 57 1008.3
20260507154011 15 0.0 0.0 0.00 0.84 0.53 57 1008.3
20260507153502 15 0.0 0.0 0.00 0.84 0.53 57 1008.5
20260507153002 15 0.0 0.0 0.00 0.84 0.53 61 1008.4
20260507152718 15 0.0 0.0 0.00 0.84 0.53 63 1008.4
20260507152002 15 0.0 0.0 0.00 0.84 0.53 65 1008.4
20260507151434 15 0.0 0.0 0.00 0.84 0.53 66 1008.5
20260507151152 15 0.0 0.0 0.00 0.84 0.53 67 1008.5
20260507150422 14 0.0 0.0 0.00 0.84 0.53 67 1008.5
20260507145911 14 0.0 0.0 0.00 0.84 0.53 70 1008.6
20260507145400 13 0.0 0.0 0.00 0.84 0.53 71 1008.6
20260507144857 13 0.0 0.0 0.00 0.84 0.53 67 1008.7
20260507144348 13 0.0 0.0 0.00 0.84 0.53 72 1008.6
20260507143846 13 0.0 0.0 0.00 0.84 0.53 70 1008.6
20260507143340 13 0.0 0.0 0.00 0.84 0.53 72 1008.9
20260507142830 12 0.0 0.0 0.00 0.84 0.53 77 1008.9
20260507142328 12 0.0 0.0 0.00 0.84 0.53 77 1008.9
20260507141801 12 0.0 0.0 0.00 0.84 0.53 76 1008.8
20260507141258 12 0.0 0.0 0.00 0.84 0.53 76 1008.8
20260507140800 12 0.0 0.0 0.00 0.84 0.53 78 1008.8
20260507140300 11 0.0 0.0 0.00 0.84 0.53 80 1008.9
20260507135758 11 0.0 0.0 0.00 0.84 0.53 83 1008.9
20260507135257 11 0.0 0.0 0.00 0.84 0.53 84 1008.9
20260507134758 11 0.0 0.0 0.00 0.84 0.53 86 1008.8
20260507134517 11 0.0 0.0 0.00 0.84 0.53 88 1008.9
20260507133756 11 0.0 0.0 0.00 0.84 0.53 89 1008.8
20260507133254 10 0.0 0.0 0.00 0.84 0.53 89 1009.0
20260507132737 10 0.0 0.0 0.00 0.84 0.53 91 1009.0
20260507132222 10 0.0 0.0 0.00 0.84 0.53 91 1008.9
20260507131722 10 0.0 0.0 0.00 0.84 0.53 92 1009.0
20260507131223 10 0.0 0.0 0.00 0.84 0.53 92 1009.0
20260507130657 10 0.0 0.0 0.00 0.84 0.53 92 1009.2
20260507130145 10 0.0 0.0 0.00 0.84 0.53 92 1009.0
20260507125857 10 0.0 0.0 0.00 0.84 0.53 92 1009.2
20260507125349 10 0.0 0.0 0.00 0.84 0.53 92 1009.1
20260507124623 10 0.0 0.0 0.00 0.84 0.53 92 1009.1
20260507124122 10 0.0 0.0 0.00 0.84 0.53 92 1009.2
20260507123622 10 0.0 0.0 0.00 0.84 0.53 92 1009.3
20260507123111 10 59 0.0 0.0 0.00 0.84 0.53 92 1009.3
20260507122604 10 59 0.0 0.0 0.00 0.84 0.53 92 1009.3
20260507122104 10 59 0.0 1.6 0.00 0.84 0.53 92 1009.4
20260507121603 10 59 0.0 1.6 0.00 0.84 0.53 92 1009.4
20260507121331 10 59 0.0 1.6 0.00 0.84 0.53 92 1009.3
20260507120557 9 66 0.0 0.0 0.00 0.84 0.53 92 1009.1
20260507120057 9 0.0 0.0 0.00 0.84 0.53 92 1009.3
20260507115522 9 0.0 0.0 0.00 0.84 0.53 92 1009.1
20260507115022 9 0.0 0.0 0.00 0.84 0.53 91 1009.0
20260507114522 9 0.0 0.0 0.00 0.84 0.53 91 1009.0
20260507114022 9 0.0 0.0 0.00 0.84 0.53 91 1009.2
20260507113522 9 0.0 0.0 0.00 0.84 0.53 91 1009.0
20260507113015 9 0.0 0.0 0.00 0.84 0.53 91 1009.1
20260507112503 9 0.0 0.0 0.03 0.84 0.53 91 1008.9
20260507112227 9 0.0 0.0 0.03 0.84 0.53 91 1008.8
20260507111453 9 0.0 0.0 0.03 0.84 0.53 91 1008.9
20260507110953 9 0.0 0.0 0.03 0.84 0.53 91 1008.9
20260507110649 9 0.0 0.0 0.05 0.84 0.53 91 1008.9
20260507105923 9 0.0 0.0 0.05 0.84 0.53 91 1008.9
20260507105424 9 0.0 0.0 0.05 0.84 0.53 91 1008.6
20260507105136 9 0.0 0.0 0.05 0.84 0.53 91 1008.4
20260507104413 9 0.0 0.0 0.08 0.84 0.53 91 1008.6
20260507103906 9 0.0 0.0 0.08 0.84 0.53 91 1008.6
20260507103405 9 0.0 0.0 0.10 0.84 0.53 90 1008.9
20260507102900 9 0.0 0.0 0.13 0.84 0.53 90 1009.0
20260507102613 9 0.0 0.0 0.13 0.81 0.51 90 1009.0
20260507101847 9 0.0 0.0 0.13 0.81 0.51 90 1009.1
20260507101322 9 0.0 0.0 0.13 0.81 0.51 90 1008.5
20260507100802 9 0.0 0.0 0.15 0.81 0.51 90 1008.5
20260507100301 9 0.0 0.0 0.15 0.79 0.48 90 1008.7
20260507095759 9 0.0 0.0 0.18 0.79 0.48 90 1008.9
20260507095239 9 0.0 0.0 0.20 0.79 0.48 90 1008.6
20260507094735 9 0.0 0.0 0.23 0.79 0.48 90 1008.4
20260507094228 9 0.0 0.0 0.25 0.76 0.46 90 1008.2
20260507093729 9 0.0 0.0 0.28 0.76 0.46 89 1008.4
20260507093201 9 0.0 0.0 0.30 0.74 0.43 89 1008.3
20260507092659 9 0.0 0.0 0.28 0.71 0.41 89 1008.4
20260507092158 9 0.0 0.0 0.28 0.69 0.38 89 1008.4
20260507091656 10 0.0 0.0 0.28 0.69 0.38 89 1008.2
20260507091157 10 0.0 0.0 0.28 0.69 0.38 89 1008.0
20260507090905 10 0.0 0.0 0.28 0.66 0.36 88 1008.0
20260507090359 10 0.0 0.0 0.28 0.64 0.33 88 1008.2
20260507085639 10 0.0 0.0 0.25 0.61 0.30 87 1008.4
20260507085135 10 0.0 0.0 0.23 0.58 0.28 87 1008.4
20260507084625 10 0.0 0.0 0.20 0.56 0.25 87 1008.5
20260507084045 10 0.0 0.0 0.18 0.51 0.20 87 1008.5
20260507083521 10 0.0 0.0 0.13 0.46 0.15 87 1008.5
20260507083218 10 0.0 0.0 0.10 0.43 0.13 86 1008.5
20260507082441 11 0.0 0.0 0.10 0.43 0.13 87 1008.3
20260507082129 11 0.0 0.0 0.08 0.41 0.10 86 1008.0
20260507081403 11 0.0 0.0 0.08 0.41 0.10 86 1008.0
20260507080849 11 0.0 0.0 0.05 0.38 0.08 87 1008.2
20260507080339 11 0.0 0.0 0.05 0.38 0.08 87 1008.4
20260507075822 11 0.0 0.0 0.03 0.36 0.05 87 1008.3
20260507075322 11 0.0 0.0 0.03 0.36 0.05 87 1008.3
20260507075044 11 0.0 0.0 0.03 0.36 0.05 87 1008.1
20260507074305 11 0.0 0.0 0.00 0.33 0.03 87 1008.0
20260507073803 11 0.0 0.0 0.00 0.33 0.03 88 1008.1
20260507073301 12 0.0 0.0 0.00 0.33 0.03 88 1007.9
20260507072800 12 0.0 0.0 0.00 0.33 0.03 89 1007.8
20260507072257 12 0.0 0.0 0.00 0.33 0.03 90 1007.6
20260507071759 12 0.0 0.0 0.00 0.33 0.03 90 1007.4
20260507071256 12 0.0 0.0 0.00 0.33 0.03 90 1007.1
20260507070743 12 0.0 0.0 0.00 0.33 0.03 90 1007.3
20260507070428 12 0.0 0.0 0.00 0.33 0.03 90 1007.3
20260507065658 12 0.0 0.0 0.00 0.33 0.03 90 1007.3
20260507065156 12 0.0 0.0 0.00 0.33 0.03 90 1007.3
20260507064653 12 0.0 0.0 0.00 0.33 0.03 91 1007.0
20260507064406 12 0.0 0.0 0.00 0.33 0.03 91 1007.3
20260507063606 12 0.0 0.0 0.00 0.33 0.03 91 1007.3
20260507063104 12 0.0 0.0 0.00 0.33 0.03 91 1007.7
20260507062601 12 0.0 0.0 0.00 0.33 0.03 91 1007.4
20260507062323 12 0.0 0.0 0.00 0.33 0.03 91 1007.4
20260507061541 12 0.0 0.0 0.00 0.33 0.03 91 1007.3
20260507061033 12 0.0 0.0 0.00 0.33 0.03 91 1007.3
20260507060458 12 0.0 0.0 0.00 0.33 0.03 92 1007.3
20260507055945 13 0.0 0.0 0.00 0.33 0.03 92 1007.5
20260507055701 13 0.0 0.0 0.00 0.33 0.03 92 1007.6
20260507054934 13 0.0 0.0 0.00 0.33 0.03 92 1007.6
20260507054434 13 0.0 0.0 0.00 0.33 0.03 93 1007.5
20260507054149 13 0.0 0.0 0.00 0.33 0.03 93 1007.7
20260507053357 13 0.0 0.0 0.00 0.33 0.03 93 1007.8
20260507053346 14 0.0 0.0 0.00 0.33 0.03 93 1007.9
20260507052350 14 0.0 0.0 0.03 0.33 0.03 93 1007.6
20260507052104 14 0.0 0.0 0.03 0.33 0.03 93 1007.7
20260507051337 14 0.0 0.0 0.03 0.33 0.03 93 1007.6
20260507050822 14 0.0 0.0 0.03 0.33 0.03 93 1007.5
20260507050541 14 0.0 0.0 0.03 0.33 0.03 93 1007.4
20260507045821 14 0.0 0.0 0.03 0.33 0.03 93 1007.5
20260507045321 15 0.0 0.0 0.03 0.33 0.03 94 1007.5
20260507044756 15 0.0 0.0 0.03 0.33 0.03 94 1007.5
20260507044253 15 0.0 0.0 0.03 0.33 0.03 94 1007.7
20260507043700 15 0.0 0.0 0.03 0.33 0.03 94 1007.7
20260507043154 15 0.0 0.0 0.03 0.33 0.03 94 1007.5
20260507042640 15 0.0 0.0 0.03 0.33 0.03 94 1007.4
20260507042056 15 0.0 0.0 0.00 0.30 0.00 94 1007.3
20260507041527 15 0.0 0.0 0.00 0.30 0.00 94 1007.4
20260507041232 15 0.0 0.0 0.00 0.30 0.00 94 1007.3
20260507040458 15 0.0 0.0 0.00 0.30 0.00 94 1007.4
20260507035923 15 0.0 0.0 0.00 0.30 0.30 94 1007.5
20260507035358 15 0.0 0.0 0.00 0.30 0.30 94 1007.6
20260507034857 15 0.0 0.0 0.00 0.30 0.30 94 1007.7
20260507034358 15 0.0 0.0 0.00 0.30 0.30 94 1007.6
20260507033839 15 0.0 0.0 0.00 0.30 0.30 94 1007.6
20260507033325 15 0.0 0.0 0.00 0.30 0.30 94 1007.6
20260507032822 15 0.0 0.0 0.00 0.30 0.30 94 1007.5
20260507032307 15 0.0 0.0 0.00 0.30 0.30 94 1007.4
20260507031805 14 0.0 0.0 0.00 0.30 0.30 93 1007.3
20260507031303 14 0.0 0.0 0.00 0.30 0.30 93 1007.2
20260507030943 14 0.0 0.0 0.00 0.30 0.30 93 1007.2
20260507030203 14 0.0 0.0 0.00 0.30 0.30 93 1007.2
20260507025652 14 0.0 0.0 0.00 0.30 0.30 93 1007.2
20260507025153 14 0.0 0.0 0.00 0.30 0.30 93 1007.2
20260507024617 14 0.0 0.0 0.00 0.30 0.30 93 1007.0
20260507024102 14 0.0 0.0 0.00 0.30 0.30 93 1007.0
20260507023601 14 0.0 0.0 0.00 0.30 0.30 93 1007.0
20260507023059 14 0.0 0.0 0.00 0.30 0.30 93 1007.1
20260507022051 14 0.0 0.0 0.00 0.30 0.30 93 1007.0
20260507021551 14 0.0 0.0 0.00 0.30 0.30 93 1007.0
20260507021022 14 0.0 0.0 0.00 0.30 0.30 93 1007.0
20260507020505 14 0.0 0.0 0.00 0.30 0.30 93 1007.0
20260507020222 14 0.0 0.0 0.00 0.30 0.30 93 1007.2
20260507015458 14 0.0 0.0 0.00 0.30 0.30 93 1007.2
20260507015409 14 0.0 0.0 0.00 0.30 0.30 93 1007.0
20260507014643 14 0.0 0.0 0.00 0.30 0.30 93 1007.0
20260507013922 14 0.0 0.0 0.00 0.30 0.30 93 1007.2
20260507013422 14 0.0 0.0 0.00 0.30 0.30 93 1007.2
20260507012918 14 0.0 0.0 0.00 0.30 0.30 93 1007.3
20260507012401 14 0.0 0.0 0.00 0.30 0.30 93 1007.4
20260507011902 14 0.0 0.0 0.00 0.30 0.30 93 1007.4
20260507011347 14 0.0 0.0 0.00 0.30 0.30 93 1007.5
20260507011111 14 0.0 0.0 0.00 0.30 0.30 93 1007.6
20260507010345 14 0.0 0.0 0.00 0.30 0.30 92 1007.5
20260507010046 14 0.0 0.0 0.00 0.30 0.30 92 1007.6
20260507005317 14 0.0 0.0 0.00 0.30 0.30 92 1007.6
20260507004809 14 0.0 0.0 0.03 0.30 0.30 92 1007.6
20260507004304 14 0.0 0.0 0.03 0.30 0.30 92 1007.6
20260507003759 14 0.0 0.0 0.03 0.30 0.30 92 1007.6
20260507003301 14 0.0 0.0 0.03 0.30 0.30 92 1007.5
20260507002801 14 0.0 0.0 0.03 0.30 0.30 92 1007.5
20260507002253 14 0.0 0.0 0.03 0.30 0.30 92 1007.5
20260507001752 14 0.0 0.0 0.05 0.30 0.30 92 1007.4
20260507001727 14 0.0 0.0 0.08 0.30 0.30 92 1007.4
20260507000737 14 0.0 0.0 0.10 0.30 0.30 92 1007.3
20260507000221 14 0.0 0.0 0.10 0.30 0.30 92 1007.3
20260506235945 14 0.0 0.0 0.10 0.30 0.30 91 1007.2
20260506235200 15 0.0 0.0 0.10 0.30 0.30 91 1007.2
20260506234701 15 0.0 0.0 0.08 0.28 0.28 91 1007.1
20260506234133 15 0.0 0.0 0.08 0.28 0.28 91 1007.2
20260506233632 15 0.0 0.0 0.08 0.28 0.28 91 1007.1
20260506233102 15 0.0 0.0 0.08 0.28 0.28 91 1007.1
20260506232600 15 0.0 0.0 0.08 0.28 0.28 91 1007.1
20260506232047 15 0.0 0.0 0.08 0.28 0.28 91 1007.0
20260506231540 15 0.0 0.0 0.03 0.23 0.25 91 1007.0
20260506231302 15 0.0 0.0 0.00 0.20 0.20 91 1007.3
20260506230748 15 0.0 0.0 0.00 0.20 0.20 91 1007.1
20260506230248 15 0.0 0.0 0.00 0.20 0.20 91 1007.2
20260506225501 15 0.0 0.0 0.00 0.20 0.20 91 1007.2
20260506224956 15 0.0 0.0 0.00 0.20 0.20 91 1007.2
20260506224713 15 0.0 0.0 0.03 0.20 0.20 91 1007.2
20260506223949 15 0.0 0.0 0.03 0.20 0.20 91 1007.2
20260506223451 15 0.0 0.0 0.03 0.20 0.20 91 1007.2
20260506223209 15 0.0 0.0 0.05 0.20 0.20 90 1007.2
20260506222440 15 0.0 0.0 0.05 0.20 0.20 90 1007.4
20260506221933 15 0.0 0.0 0.08 0.20 0.20 90 1007.4
20260506221649 15 0.0 0.0 0.08 0.20 0.20 90 1007.6
20260506220931 16 148 0.0 0.0 0.10 0.20 0.20 90 1007.5
20260506220425 16 148 0.0 0.0 0.10 0.20 0.20 90 1007.5
20260506215923 16 148 0.0 1.6 0.10 0.20 0.20 89 1007.6
20260506215421 16 148 0.0 1.6 0.13 0.20 0.20 89 1007.5
20260506215409 16 157 0.0 1.6 0.15 0.20 0.20 89 1007.5
20260506214421 16 158 0.0 3.2 0.13 0.18 0.20 89 1007.5
20260506213922 16 157 0.0 4.8 0.13 0.18 0.18 89 1007.8
20260506213422 16 156 0.0 4.8 0.13 0.18 0.18 89 1007.9
20260506212921 16 95 0.0 6.4 0.10 0.15 0.15 88 1007.9
20260506212421 16 157 0.0 6.4 0.13 0.15 0.15 88 1008.0
20260506211921 16 195 0.0 1.6 0.10 0.13 0.13 88 1008.0
20260506211421 16 207 0.0 4.8 0.10 0.13 0.13 88 1007.9
20260506210922 16 207 0.0 4.8 0.08 0.10 0.10 88 1007.9
20260506210421 16 320 0.0 3.2 0.08 0.10 0.10 87 1007.9
20260506205921 16 320 0.0 6.4 0.08 0.10 0.10 87 1007.9
20260506205421 16 320 1.6 6.4 0.05 0.08 0.08 86 1008.0
20260506204921 16 37 1.6 4.8 0.03 0.05 0.05 86 1008.2
20260506204421 16 112 1.6 4.8 0.03 0.05 0.05 85 1008.1
20260506203921 16 114 1.6 9.7 0.05 0.05 0.05 85 1008.1
20260506203421 16 223 1.6 9.7 0.05 0.05 0.05 85 1008.3
20260506202922 17 111 0.0 4.8 0.05 0.05 0.05 83 1008.3
20260506202410 17 107 0.0 3.2 0.03 0.03 0.03 83 1008.3
20260506201908 17 107 1.6 4.8 0.03 0.03 0.03 82 1008.3
20260506201622 17 133 1.6 11.3 0.03 0.03 0.03 82 1008.3
20260506200905 17 129 1.6 11.3 0.03 0.03 0.03 81 1008.3
20260506200405 17 96 0.0 3.2 0.03 0.03 0.03 81 1008.3
20260506195900 17 96 0.0 9.7 0.03 0.03 0.03 80 1008.2
20260506195326 18 96 0.0 9.7 0.03 0.03 0.03 80 1008.2
20260506194821 18 3 0.0 1.6 0.03 0.03 0.03 79 1008.1
20260506194321 18 3 0.0 1.6 0.03 0.03 0.03 78 1008.3
20260506193821 18 3 0.0 4.8 0.00 0.00 0.00 77 1008.5
20260506193321 18 3 1.6 8.0 0.00 0.00 0.00 76 1008.4
20260506192820 18 190 1.6 8.0 0.00 0.00 0.00 75 1008.5
20260506192321 19 109 0.0 4.8 0.00 0.00 0.00 74 1008.4
20260506191803 19 159 0.0 3.2 0.00 0.00 0.00 73 1008.6
20260506191303 20 162 0.0 8.0 0.00 0.00 0.00 72 1008.5
20260506190758 20 162 0.0 8.0 0.00 0.00 0.00 71 1008.5
20260506190526 20 57 0.0 3.2 0.00 0.00 0.00 70 1008.4
20260506185800 20 51 0.0 4.8 0.00 0.00 0.00 68 1008.4
20260506185300 20 148 0.0 12.9 0.00 0.00 0.00 67 1008.3
20260506184801 20 28 1.6 12.9 0.00 0.00 0.00 67 1008.4
20260506184512 20 114 0.0 4.8 0.00 0.00 0.00 66 1008.4
20260506184015 20 170 0.0 8.0 0.00 0.00 0.00 65 1008.5
20260506183250 21 160 0.0 8.0 0.00 0.00 0.00 64 1008.5
20260506182751 21 16 1.6 8.0 0.00 0.00 0.00 63 1008.5
20260506182248 21 51 1.6 8.0 0.00 0.00 0.00 62 1008.5
20260506181748 21 54 1.6 4.8 0.00 0.00 0.00 62 1008.5
20260506181509 21 113 1.6 4.8 0.00 0.00 0.00 61 1008.5
20260506181010 22 136 1.6 6.4 0.00 0.00 0.00 61 1008.7
20260506180246 22 49 1.6 6.4 0.00 0.00 0.00 60 1008.7
20260506175734 22 170 1.6 8.0 0.00 0.00 0.00 60 1008.8
20260506175230 22 163 1.6 9.7 0.00 0.00 0.00 59 1008.9
20260506174710 22 35 1.6 9.7 0.00 0.00 0.00 60 1009.1
20260506174206 22 116 1.6 14.5 0.00 0.00 0.00 61 1009.0
20260506173705 22 113 1.6 14.5 0.00 0.00 0.00 62 1009.1
20260506173206 22 162 1.6 16.1 0.00 0.00 0.00 61 1009.0
20260506172700 22 152 1.6 16.1 0.00 0.00 0.00 60 1009.1
20260506172159 22 134 1.6 9.7 0.00 0.00 0.00 60 1009.0
20260506171659 23 154 1.6 4.8 0.00 0.00 0.00 61 1009.1
20260506171200 23 17 1.6 9.7 0.00 0.00 0.00 60 1009.1
20260506170650 23 47 1.6 9.7 0.00 0.00 0.00 61 1009.0